Location: *
(40.7765°S, 106.5327°E)
Time: 08:14:46
(UTC+00:00)

COSMOS 2406 - Visible Passes

Search period start: 06 October 2022 00:00
Search period end: 16 October 2022 00:00
Orbit: 845 x 861 km, 71.0° (Epoch: 05 October)

Date Brightness Start Highest point End Pass type
(mag) Time Alt. Az. Time Alt. Az. Time Alt. Az.
06 Oct 5.7 15:53:06 10° S 15:54:41 16° SSE 15:54:41 16° SSE visible
06 Oct 6.0 17:36:38 10° SSW 17:36:43 10° SSW 17:36:43 10° SSW visible
07 Oct 5.6 15:41:32 10° S 15:43:18 17° SSE 15:43:18 17° SSE visible
07 Oct 5.9 17:25:06 10° SSW 17:25:20 11° SSW 17:25:20 11° SSW visible
08 Oct 5.5 15:29:57 10° S 15:31:56 17° SSE 15:31:56 17° SSE visible
08 Oct 5.9 17:13:32 10° SSW 17:13:58 12° SSW 17:13:58 12° SSW visible
09 Oct 5.4 15:18:23 10° S 15:20:35 18° SSE 15:20:35 18° SSE visible
09 Oct 5.8 17:02:00 10° SSW 17:02:37 13° SSW 17:02:37 13° SSW visible
10 Oct 5.3 15:06:49 10° S 15:09:15 19° SSE 15:09:15 19° SSE visible
10 Oct 5.8 16:50:26 10° SSW 16:51:18 14° SW 16:51:18 14° SW visible
11 Oct 5.2 14:55:15 10° S 14:57:56 20° SSE 14:57:56 20° SSE visible
11 Oct 5.7 16:38:53 10° SSW 16:39:58 16° SW 16:39:58 16° SW visible
12 Oct 5.1 14:43:41 10° S 14:46:38 21° SSE 14:46:38 21° SSE visible
12 Oct 5.6 16:27:20 10° SSW 16:28:41 17° SW 16:28:41 17° SW visible
13 Oct 5.0 14:32:07 10° S 14:35:21 22° SSE 14:35:21 22° SSE visible
13 Oct 5.5 16:15:47 10° SSW 16:17:25 19° SW 16:17:25 19° SW visible
14 Oct 4.9 14:20:33 10° S 14:24:06 23° SE 14:24:06 23° SE visible
14 Oct 5.3 16:04:14 10° SSW 16:06:09 21° SW 16:06:09 21° SW visible
15 Oct 4.8 14:08:58 10° S 14:12:52 24° SE 14:12:52 24° SE visible
15 Oct 5.2 15:52:40 10° SSW 15:54:56 24° SW 15:54:56 24° SW visible
